Regional Weather Roundup
Issued by NWS

Home | Current Version | Previous Version | Text Only | Print | Product List | Glossary On
Versions: 1 2 3 4 5 6 7 8 9 10 11 12 13 14 15 16 17 18 19 20 21 22 23 24 25 26 27 28 29 30 31 32 33 34 35 36 37 38 39 40 41 42 43 44 45 46 47 48 49 50
000
ASUS43 KMPX 240610
RWRMN
WEATHER ROUNDUP FOR MINNESOTA
NATIONAL WEATHER SERVICE TWIN CITIES/CHANHASSEN MN
100 AM CDT SAT SEP 24 2016


NOTE: "FAIR" INDICATES FEW OR NO CLOUDS BELOW 12,000 FEET WITH NO
SIGNIFICANT WEATHER AND/OR OBSTRUCTIONS TO VISIBILITY. N/A MEANS
CURRENT SKY AND/OR WEATHER CONDITIONS ARE NOT AVAILABLE.

MNZ060>063-068>070-240700-
   Twin Cities Metro

CITY           SKY/WX    TMP DP  RH WIND       PRES   REMARKS
TWIN CITIES    CLOUDY    65  60  84 SE15      30.08S
6HR MIN TEMP:  64; 6HR MAX TEMP:  65; 6HR PCP: TRACE;

ST PAUL        CLOUDY    64  60  87 SE12      30.09S
CRYSTAL        CLOUDY    65  59  81 SE8       30.07R
BLAINE         FAIR      64  63  94 SE12      30.08S
LAKEVILLE      CLOUDY    63  63 100 SE10      30.08S
EDEN PRAIRIE   CLOUDY    66  61  84 SE9       30.07R
6HR MIN TEMP:  64; 6HR MAX TEMP:  66;

LAKEVILLE      CLOUDY    63  63 100 SE10      30.08S
SOUTH ST PAUL  CLOUDY    65  62  90 SE5       30.09S
LAKE ELMO      CLOUDY    63  61  94 SE7       30.11R
$$
MNZ001>005-007-008-013>017-022>024-027-028-240700-
   Northwest Minnesota

CITY           SKY/WX    TMP DP  RH WIND       PRES   REMARKS
BEMIDJI        CLOUDY    56  51  81 SE14      30.06S
HALLOCK        RAIN      57  55  94 SE12      30.00S
ROSEAU         HVY RAIN  54  48  82 E8        30.06S
WARROAD        RAIN      55  52  88 SE9       30.09R
THIEF RVR FALL CLOUDY    56  53  90 E13       30.02R
CROOKSTON      CLOUDY    61  57  88 SE12        N/A
FOSSTON        CLOUDY    57  54  88 SE9       30.01S
DETROIT LAKES  CLOUDY    59  55  88 SE17G24   30.02R
MOORHEAD       CLOUDY    64  61  88 SE13      29.97R
PARK RAPIDS    CLOUDY    59  52  77 SE13      30.06R
MAHNOMEN       CLOUDY    59  55  87 SE17G26   29.99S
$$
MNZ006-009>011-018-025>026-240700-
   North Central Minnesota

CITY           SKY/WX    TMP DP  RH WIND       PRES   REMARKS
BAUDETTE       CLOUDY    55  47  74 SE17G23   30.10S
FLAG ISLAND    CLOUDY    59  48  67 SE6       30.09R
INTL FALLS     LGT RAIN  54  46  74 SE13      30.15S
6HR MIN TEMP:  53; 6HR MAX TEMP:  60; 6HR PCP: TRACE;

WASKISH        LGT RAIN  54  52  94 E9        30.09S
BIG FORK       LGT RAIN  54  50  87 E7        30.12S
GRAND RAPIDS   CLOUDY    57  52  83 SE8       30.14F
ORR            FAIR      52  46  82 SE5       30.13F
COOK           MOCLDY    54  50  87 E3        30.17S
WALKER         CLOUDY    57  52  82 SE7       30.08S
$$
MNZ012-019>021-037-240700-
   Northeast Minnesota

CITY           SKY/WX    TMP DP  RH WIND       PRES   REMARKS
DULUTH         FAIR      57  53  86 E9        30.17S
6HR MIN TEMP:  56; 6HR MAX TEMP:  58;

ELY            MOCLDY    54  48  82 SE9       30.19R
HIBBING        CLOUDY    53  50  89 E7        30.16F
EVELETH        CLOUDY    55  51  88 E5        30.18S
DULUTH HARBOR  MOCLDY    59  55  88 E16       30.17S
TWO HARBORS    FAIR      61  55  82 E8        30.17S
SILVER BAY     FAIR      57  54  88 NE8G17    30.18F
GRAND MARAIS     N/A     59  53  80 E13       30.23S
G MARAIS ARPRT FAIR      50  45  81 E6        30.25S
$$
MNZ029>031-032-039>041-046>048-054>057-064-240700-
   West Central Minnesota

CITY           SKY/WX    TMP DP  RH WIND       PRES   REMARKS
FERGUS FALLS   CLOUDY    63  63 100 SE13      30.00S
MORRIS         CLOUDY    64  63  94 SE14G21   29.98R FOG
ALEXANDRIA     CLOUDY    62  62 100 SE15G22   30.03F FOG
ELBOW LAKE     CLOUDY    62  61  96 E14G22    29.99R
WADENA         CLOUDY    57  57 100 E10       30.04F FOG
GLENWOOD       CLOUDY    63  61  94 SE14      30.03S FOG
BENSON         CLOUDY    64  61  88 S9        30.00S FOG
ORTONVILLE     CLOUDY    64  63  94 SE13G18   29.95S FOG
MADISON          N/A     70  70 100 SE14      29.96F FOG
WILLMAR        CLOUDY    64  64 100 SE12G17   30.04R FOG
$$
MNZ033>034-036-042>043-049>051-058-059-240700-
   Central Minnesota

CITY           SKY/WX    TMP DP  RH WIND       PRES   REMARKS
ST CLOUD       CLOUDY    62  62 100 SE8       30.07S
6HR MIN TEMP:  61; 6HR MAX TEMP:  63;

SAUK CENTRE    CLOUDY    61  60  98 SE13      30.04F FOG
PAYNESVILLE    CLOUDY    62  62 100 SE12G18   30.05S FOG
AITKIN         CLOUDY    61  52  72 E7        30.10F
PINE RIVER     CLOUDY    57  54  88 E15G21    30.11F
BRAINERD       CLOUDY    59  55  87 VRB7      30.09F
STAPLES        CLOUDY    57  55  94 E5        30.06S FOG
LONG PRAIRIE   CLOUDY    61  59  94 E13       30.05F FOG
LITTLE FALLS   CLOUDY    61  57  88 E9        30.07F
LITCHFIELD     CLOUDY    64  63  94 SE10G16   30.05S
BUFFALO        CLOUDY    64  60  88 E6        30.08S
MAPLE LAKE     CLOUDY    64  62  93 SE7       30.08R
HUTCHINSON     CLOUDY    64  64  97 E10       30.05F
$$
MNZ037-044-045-052-053-240700-
   East Central Minnesota

CITY           SKY/WX    TMP DP  RH WIND       PRES   REMARKS
PRINCETON      CLOUDY    63  61  94 E6        30.09S
MORA           CLOUDY    55  54  94 E3        30.13S
CAMBRIDGE      CLOUDY    64  59  82 E5        30.09S
MOOSE LAKE     CLOUDY    55  52  88 NE3       30.13S
HINCKLEY       CLOUDY    59  55  88 E6        30.13S
CLOQUET        CLOUDY    57  52  82 E6        30.16S
MCGREGOR       CLOUDY    55  54  94 E6        30.14S
$$
MNZ071>073-080-081-089-090-097-098-240700-
   Southwest Minnesota

CITY           SKY/WX    TMP DP  RH WIND       PRES   REMARKS
MONTEVIDEO     CLOUDY    66  66 100 S15       30.00S FOG
GRANITE FALLS  CLOUDY    67  66  96 E15       30.01S FOG
CANBY          CLOUDY    68  66  93 E8        29.97S
MARSHALL       CLOUDY    70  67  90 SE13      29.97F
REDWOOD FALLS  CLOUDY    66  64  93 SE13      30.00S FOG
OLIVIA         CLOUDY    64  61  88 SE13G20   30.01S
PIPESTONE      FAIR      70  66  88 SE14G22   29.97S
WINDOM         CLOUDY    70  66  88 SE14G21   30.01S FOG
JACKSON        CLOUDY    70  64  83 SE15      30.03S HAZE
TRACY          CLOUDY    70  68  95 S13       29.99S
$$
MNZ065>067-074>077-082>085-091>093-240700-
   South Central Minnesota

CITY           SKY/WX    TMP DP  RH WIND       PRES   REMARKS
MANKATO        CLOUDY    66  63  90 SE15      30.05S
NEW ULM        CLOUDY    66  64  94 SE12      30.03F
ST JAMES       CLOUDY    66  64  94 SE12      30.04S FOG
FAIRMONT       CLOUDY   N/A N/A N/A SE13      30.04S
GLENCOE        CLOUDY    65  64  99 SE8       30.05F
FARIBAULT      CLOUDY    64  63  94 SE10      30.08S
OWATONNA       CLOUDY    64  61  88 SE15G22   30.07S
WASECA         CLOUDY    63  61  94 SE13      30.08S
ALBERT LEA     CLOUDY    66  64  94 SE14      30.08S FOG
$$
MNZ078>079-086>088-094>096-240700-
   Southeast Minnesota

CITY           SKY/WX    TMP DP  RH WIND       PRES   REMARKS
ROCHESTER      CLOUDY    64  62  93 SE14      30.11S
6HR MIN TEMP:  63; 6HR MAX TEMP:  64;

RED WING       CLOUDY    66  61  82 SE13      30.10R
DODGE CENTER   CLOUDY    64  61  88 SE10      30.10R
WINONA         CLOUDY    63  59  88 SE9       30.13S
AUSTIN         CLOUDY    64  61  88 SE7       30.09S
PRESTON        MOCLDY    63  59  88 E9        30.12S
$$
ABBREVIATIONS USED IN REMARKS
   TC - TEMPERATURES IN CELSIUS
  WCI - WIND CHILL INDEX
   HX - HEAT INDEX
  VSB - VISIBILITY
$$




USA.gov is the U.S. government's official web portal to all federal, state and local government web resources and services.